Regional Weather Roundup
Issued by NWS

Home | Current Version | Previous Version | Graphics & Text | Print | Product List | Glossary On
Versions: 1 2 3 4 5 6 7 8 9 10 11 12 13 14 15 16 17 18 19 20 21 22 23 24 25 26 27 28 29 30 31 32 33 34 35 36 37 38 39 40 41 42 43 44 45 46 47 48 49 50
805
ASUS45 KBOI 191110
RWRID

IDAHO REGIONAL WEATHER ROUNDUP
NATIONAL WEATHER SERVICE BOISE ID
400 AM MST FRI JAN 19 2018

NOTE: "FAIR" INDICATES FEW OR NO CLOUDS BELOW 12000 FEET
WITH NO SIGNIFICANT WEATHER AND/OR OBSTRUCTIONS TO VISIBILITY

IDZ012-014-191200-
SOUTHWEST IDAHO


CITY           SKY/WX    TMP DP  RH WIND       PRES   REMARKS
BOISE          CLOUDY    39  37  92 NE5       29.82F
CALDWELL       LGT RAIN  39  38  96 E8        29.84S WCI  33
MOUNTAIN HOME  DRIZZLE   37  37 100 SE5       29.83S WCI  33
$$

IDZ016-017-191200-
SOUTHCENTRAL IDAHO


CITY           SKY/WX    TMP DP  RH WIND       PRES   REMARKS
BURLEY         CLOUDY    39  34  82 SW9       29.84S WCI  33
JEROME         LGT RAIN  35  34  96 S8        29.84F WCI  29
TWIN FALLS     LGT RAIN  35  35 100 S9        29.84F WCI  28
$$

IDZ019>023-191200-
SOUTHEAST IDAHO


CITY           SKY/WX    TMP DP  RH WIND       PRES   REMARKS
IDAHO FALLS    LGT RAIN  36  33  89 SW20G30   29.78R WCI  25
POCATELLO      CLOUDY    38  34  85 SW24G30   29.83F WCI  27
REXBURG        CLOUDY    39  33  79 SW14      29.75F WCI  31
$$

IDZ006-010-011-018-031-032-191200-
CENTRAL IDAHO MOUNTAINS


CITY           SKY/WX    TMP DP  RH WIND       PRES   REMARKS
MCCALL         CLOUDY    32  31  96 CALM      29.71F
HAILEY         CLOUDY    34  34 100 SE6       29.79R WCI  29
STANLEY          N/A     32  29  88 S8        29.73F WCI  25
SALMON         CLOUDY    33  33 100 SE3       29.72F
CHALLIS        CLOUDY    37  32  82 SE7       29.72F WCI  32
$$

IDZ002-004-006-007-026-191200-
NORTHERN IDAHO


CITY           SKY/WX    TMP DP  RH WIND       PRES   REMARKS
LEWISTON       CLOUDY    36  36 100 MISG      29.84S
LOWELL           N/A     34  33  96 CALM      29.86S
COEUR D`ALENE  CLOUDY    34  33  96 S5        29.79R WCI  30
MULLAN PASS    CLOUDY    23  23 100 VRB3      29.67F
$$




USA.gov is the U.S. government's official web portal to all federal, state and local government web resources and services.